Погода в Ковыляевке

Россия / Оренбургская область     52°12′50″N   52°43′06″E
темп.,
°C
ветер,
м/с
пор.,
м/с
влажн.,
%
обл.,
%
осадки,
мм/ч
давл.,
гПа
погр.,
м
7 марта, вс
вс723:00−8ссв2396100 0.1 101367
02:00−8ссв4696100 0.7 1011188
05:00−10ссв4792100 0.8 1011192
08:00−13с3586100 0.0 101179
11:00−13ссз358466 0.0 1013150
14:00−10зсз35820 0.0 1014241
17:00−9зюз35881 0.0 1014259
20:00−13юз489157 0.0 1014126
8 марта, пн
пн823:00−13ююз599875 0.0 1014174
02:00−11ююз71593100 0.0 1012359
05:00−8ююз101893100 0.3 1009656
08:00−6ююз111991100 0.4 1007849
11:00−5юз111792100 0.9 1006903
14:00−3юз101493100 0.4 1007906
17:00−3юз91394100 0.9 1007885
20:00−3юз81495100 0.7 1007860
9 марта, вт
вт923:00−3юз91595100 1.3 1007803
02:00−2юз81595100 0.5 1006721
05:00−2зюз61193100 1.1 1007703
08:00−7з3694100 0.1 1009100
11:00−8зсз2387100 0.1 1011118
14:00−6в1179100 0.0 1011195
17:00−5всв3494100 0.2 1009212
20:00−5св5896100 2.5 1006282
10 марта, ср
ср1023:00−5ссв3797100 7.1 1004341
02:00−8ссз91395100 3.9 1002497
05:00−9сз101693100 5.3 1004651
08:00−15зсз8149399 0.1 1006338
11:00−15зсз7129498 0.2 1009357
14:00−15зсз7119399 0.0 1012444
17:00−15сз7119299 0.1 1014549
20:00−18сз61195100 0.1 1016370
11 марта, чт
чт1123:00−21сз61198100 0.1 1018302
02:00−26сз599880 0.0 1019166
05:00−28сз5109850 0.0 1021151
08:00−28сз5109838 0.0 1022163
11:00−25сз589638 0.0 1024233
14:00−21сз589420 0.0 1026302
17:00−19сз579317 0.0 1026287
20:00−23сз44982 0.0 102762